sat.trackr.live / text

‹ back to catalog

STARLINK-37860

NORAD 69554 · 2026-135J

PAYLOAD ACTIVE UNKNOWN

§ Identity

Operator
Country
US
Launch date
2026-06-15
Launch site
AFWTR
Launch vehicle
Mass (kg)
RCS (m²)

Purposes: comms

External: N2YO · Heavens-Above · Gunter

§ Orbital elements

Epoch: 2026-09-19T00:42:07.682976Z

Period
93.91 min
Inclination
97.2845°
Eccentricity
0.0001787
Mean motion
15.33454847 rev/d
Perigee alt
464.3 km
Apogee alt
466.7 km
Semi-major
6,843.7 km
B*
4.2508e-4
RAAN
289.7204°
Arg perigee
85.0868°
Mean anomaly
275.0578°
Rev number
1,477

§ Raw data

STARLINK-378601 69554U 26135J   26262.02925559  .00013678  00000+0  42508-3 0  99972 69554  97.2845 289.7204 0001787  85.0868 275.0578 15.33454847 14773

JSON: /api/v1/satellites/69554 · /tle

For live sub-satellite position, see the globe view (requires WebGL).

§ Visibility from observer

Set your observer location to see the next 7 days of passes ≥ 10°. The values pass through the URL so the page stays shareable.

No JS? Fill the form by hand. The geolocation button needs JavaScript.